THOR ABLESTAR DEB, 2620

Orbit data source: Space-Track

THOR ABLESTAR DEB, 2620 is space debris in LEO originally from a launch on Thu, 05 Dec 1963 UTC launched from the Air Force Western Test Range (AFWTR). Debris objects in space refer to the collection of defunct objects orbiting the Earth. Examples of debris include non-operational satellites, rocket bodies, and fragments generated from explosions, collisions, or faulty payload assembly.

Loading next visibility...
THOR ABLESTAR DEB details
Identifier
2620, 1963-049H
Orbit
LEO
Last TLE update12 hours ago
Origin
Flag of USUSAF SSD (US)
ManufacturerUnknown
MissionSpacecraft
Bus & MotorUnknown
MassUnknown
Launch date (UTC)
1963-12-05 (61 years ago)
Launch vehicleUnknown
Launch site
Air Force Western Test Range (AFWTR)
Object type
Payload
Rocket body
Debris
Shape & HBRUnknown
Radar Cross SectionSmall (<0.1 m²)

Expand to show TLE details & history

TLE from 12 hours ago
0 THOR ABLESTAR DEB
1  2620U 63049H   25043.06320786  .00000378  00000-0  49787-3 0  9994
2  2620  89.9088  76.8223 0017822  96.5472 292.4958 13.59441011 24290
Epoch: 2025-02-12T01:31Z
Definitive object data (Epoch: 2025-02-12T01:31:01.159Z)
Latitude28.89739°
Longitude-88.24151°
Altitude1,036.334 km
Speed7.339 km/s
True Right ascension05h 07m 29s
True Declination28° 45' 27"
Sunlit
Object was in daylight at TLE epoch
Visualization TLE readout
Latitude49.85041°
Longitude-88.18889°
Altitude1,036.402 km
Speed7.343 km/s
Apparent Right ascension04h 48m 41s
Apparent Declination9° 15' 21"
Sunlit
Object is in daylight
Visualization observer readout
Local Sidereal Time16:30:05
Azimuth353.951° N
Elevation-40.64°
Doppler factor1
Orbital elements
Apogee altitude1,047.972 km
Perigee altitude1,021.549 km
Semi-major axis7,412.897 km
Eccentricity0.0017822
Inclination89.9088°
RAAN76.8223°
Arg. of periapsis96.5472°
True anomaly292.30695°
Mean anomaly292.4958°
Eccentric anomaly292.40139°
Mean motion3.40064 °/min
BSTAR0.00049787
Orbital period105.86 mins
Loading maneuver chart data...
Loading historical data...
Loading historical data...
Loading historical data...
Loading historical data...
Loading historical data...
Loading historical data...
Loading historical data...

THOR ABLESTAR DEB Visibility forecast

Observer location: undefined°, undefined

Span
Click to sort rows by Start time (UTC) header in descending order
Start Az.
Max El. time (UTC)
Max El. Az.
Max El.
End time (UTC)
End Az.
11 mins2025-02-12 14:20:05.211Z6.223° NNE2025-02-12 14:26:05.211Z130.569° SE43.599°2025-02-12 14:31:05.211Z176.411° S
6 mins2025-02-12 16:08:05.211Z314.442° NW2025-02-12 16:10:05.211Z294.127° NW15.462°2025-02-12 16:14:05.211Z254.519° W
11 mins2025-02-13 02:13:05.211Z163.675° S2025-02-13 02:18:05.211Z90.868° ESE42.875°2025-02-13 02:24:05.211Z3.832° NNE
6 mins2025-02-13 04:02:05.211Z255.547° W2025-02-13 04:04:05.211Z276.98° WNW16.918°2025-02-13 04:08:05.211Z318.289° NNW
9 mins2025-02-13 13:19:05.211Z33.179° NE2025-02-13 13:23:05.211Z78.935° E23.958°2025-02-13 13:28:05.211Z134.653° SE
|